DWFW8688 Weather Reports


time (UTC)temp
F
wind
direction
speed
knots
gust
knots
rain 1hr
in
rain 24hr
in
rain mn
in
humidity
%
barometer
mb
20210518213107 78 355 6.1 13.9 0.00 0.00 0.00 25 1015.7
20210518212607 78 1 6.1 14.8 0.00 0.00 0.00 26 1015.8
20210518212108 78 315 7.8 11.3 0.00 0.00 0.00 25 1015.6
20210518211607 78 333 7.0 13.0 0.00 0.00 0.00 23 1015.9
20210518211107 78 311 6.1 11.3 0.00 0.00 0.00 23 1016.0
20210518210607 78 351 4.3 11.3 0.00 0.00 0.00 26 1015.9
20210518210107 78 326 6.1 12.2 0.00 0.00 0.00 25 1016.1
20210518205607 78 318 7.8 13.9 0.00 0.00 0.00 26 1016.1
20210518205107 78 331 5.2 10.4 0.00 0.00 0.00 25 1016.3
20210518204607 77 4 5.2 8.7 0.00 0.00 0.00 26 1016.3
20210518204107 77 9 7.0 13.0 0.00 0.00 0.00 27 1016.3
20210518203607 77 343 7.0 13.0 0.00 0.00 0.00 27 1016.5
20210518203107 77 325 5.2 12.2 0.00 0.00 0.00 27 1016.5
20210518202607 77 322 6.1 14.8 0.00 0.00 0.00 26 1016.6
20210518202107 78 315 7.0 13.0 0.00 0.00 0.00 26 1016.7
20210518201608 77 349 5.2 11.3 0.00 0.00 0.00 27 1016.7
20210518201107 77 333 3.5 13.0 0.00 0.00 0.00 27 1016.8
20210518200606 77 319 7.0 12.2 0.00 0.00 0.00 27 1016.8
20210518200107 77 332 5.2 10.4 0.00 0.00 0.00 29 1017.0
20210518195606 77 341 5.2 10.4 0.00 0.00 0.00 28 1016.9
20210518195107 76 300 7.0 12.2 0.00 0.00 0.00 28 1017.0
20210518194607 76 345 7.8 13.0 0.00 0.00 0.00 29 1017.0
20210518194107 76 303 8.7 18.2 0.00 0.00 0.00 29 1016.9
20210518193607 75 350 6.1 8.7 0.00 0.00 0.00 30 1017.1
20210518193107 75 9 7.0 12.2 0.00 0.00 0.00 29 1017.3
20210518192607 75 337 7.8 13.0 0.00 0.00 0.00 30 1017.2
20210518192107 75 343 7.8 12.2 0.00 0.00 0.00 30 1017.1
20210518191607 75 337 8.7 11.3 0.00 0.00 0.00 31 1017.3
20210518191106 75 335 5.2 13.9 0.00 0.00 0.00 31 1017.3
20210518190606 75 347 7.8 12.2 0.00 0.00 0.00 30 1017.4
20210518190106 75 315 8.7 15.6 0.00 0.00 0.00 31 1017.5
20210518185607 74 332 4.3 7.8 0.00 0.00 0.00 32 1017.7
20210518185106 74 320 3.5 7.0 0.00 0.00 0.00 33 1017.8
20210518184606 74 331 6.1 11.3 0.00 0.00 0.00 32 1017.9
20210518184106 74 334 6.1 10.4 0.00 0.00 0.00 32 1018.0
20210518183606 74 343 5.2 11.3 0.00 0.00 0.00 34 1018.0
20210518183107 74 298 6.1 10.4 0.00 0.00 0.00 34 1017.9
20210518182606 74 335 6.1 11.3 0.00 0.00 0.00 34 1017.9
20210518182107 74 274 1.7 7.0 0.00 0.00 0.00 34 1017.9
20210518181607 73 325 2.6 7.0 0.00 0.00 0.00 34 1018.1
20210518181107 73 340 1.7 2.6 0.00 0.00 0.00 37 1018.3
20210518180607 72 172 2.6 5.2 0.00 0.00 0.00 37 1018.3
20210518180107 72 225 0.9 5.2 0.00 0.00 0.00 38 1018.5
20210518175607 72 151 4.3 6.1 0.00 0.00 0.00 38 1018.6
20210518175107 71 179 1.7 4.3 0.00 0.00 0.00 38 1018.6
20210518174606 71 198 0.9 2.6 0.00 0.00 0.00 38 1018.7
20210518174106 70 190 2.6 4.3 0.00 0.00 0.00 39 1018.8
20210518173606 70 145 2.6 5.2 0.00 0.00 0.00 39 1018.8
20210518173107 70 167 0.9 2.6 0.00 0.00 0.00 39 1018.8
20210518172606 69 177 2.6 4.3 0.00 0.00 0.00 41 1019.0
20210518172106 69 179 1.7 6.1 0.00 0.00 0.00 41 1018.9
20210518171607 69 123 1.7 2.6 0.00 0.00 0.00 41 1019.2
20210518171106 68 181 1.7 5.2 0.00 0.00 0.00 43 1019.0
20210518170606 68 165 2.6 5.2 0.00 0.00 0.00 44 1019.0
20210518170107 67 166 2.6 7.0 0.00 0.00 0.00 43 1019.3
20210518165607 67 99 4.3 6.1 0.00 0.00 0.00 43 1019.2
20210518165106 66 114 1.7 4.3 0.00 0.00 0.00 44 1019.3
20210518164607 66 145 1.7 6.1 0.00 0.00 0.00 44 1019.2
20210518164106 66 158 3.5 5.2 0.00 0.00 0.00 44 1019.3
20210518163607 66 145 1.7 4.3 0.00 0.00 0.00 44 1019.3
20210518163107 66 141 4.3 7.0 0.00 0.00 0.00 45 1019.5
20210518162606 66 142 2.6 4.3 0.00 0.00 0.00 47 1019.5
20210518162107 66 138 1.7 2.6 0.00 0.00 0.00 47 1019.3
20210518161606 65 108 1.7 4.3 0.00 0.00 0.00 49 1019.5
20210518161107 64 127 2.6 5.2 0.00 0.00 0.00 52 1019.5
20210518160607 64 142 2.6 5.2 0.00 0.00 0.00 53 1019.5
20210518160107 64 163 2.6 5.2 0.00 0.00 0.00 56 1019.5
20210518155606 63 137 1.7 5.2 0.00 0.00 0.00 55 1019.4
20210518155106 63 150 2.6 5.2 0.00 0.00 0.00 56 1019.6
20210518154606 63 143 2.6 5.2 0.00 0.00 0.00 55 1019.6
20210518154107 63 123 2.6 2.6 0.00 0.00 0.00 56 1019.6
20210518153606 63 143 3.5 5.2 0.00 0.00 0.00 56 1019.5
20210518153107 63 141 0.0 2.6 0.00 0.00 0.00 57 1019.6
20210518152607 63 138 1.7 4.3 0.00 0.00 0.00 57 1019.7
20210518152107 62 110 1.7 4.3 0.00 0.00 0.00 58 1019.6
20210518151606 62 114 0.9 2.6 0.00 0.00 0.00 58 1019.6
20210518151107 61 125 1.7 4.3 0.00 0.00 0.00 57 1019.8
20210518150606 61 112 1.7 4.3 0.00 0.00 0.00 58 1019.7
20210518150106 61 137 1.7 4.3 0.00 0.00 0.00 59 1019.9
20210518145606 61 132 1.7 2.6 0.00 0.00 0.00 60 1019.7
20210518145106 61 137 1.7 2.6 0.00 0.00 0.00 62 1019.7
20210518144606 60 148 1.7 4.3 0.00 0.00 0.00 62 1019.8
20210518144106 60 154 1.7 2.6 0.00 0.00 0.00 63 1019.7
20210518143606 60 171 1.7 2.6 0.00 0.00 0.00 63 1019.9
20210518143106 60 127 1.7 2.6 0.00 0.00 0.00 63 1019.8
20210518142606 59 124 2.6 4.3 0.00 0.00 0.00 63 1019.8
20210518142106 59 113 1.7 2.6 0.00 0.00 0.00 63 1019.9
20210518141606 59 98 1.7 4.3 0.00 0.00 0.00 63 1019.9
20210518141106 59 76 1.7 5.2 0.00 0.00 0.00 64 1019.9
20210518140606 59 55 0.9 2.6 0.00 0.00 0.00 64 1019.8
20210518140106 59 41 1.7 2.6 0.00 0.00 0.00 64 1019.9
20210518135606 58 30 1.7 2.6 0.00 0.00 0.00 64 1019.9
20210518135106 57 21 0.0 1.7 0.00 0.00 0.00 68 1019.9
20210518134606 56 21 0.0 0.0 0.00 0.00 0.00 69 1019.8
20210518134106 55 21 0.0 0.0 0.00 0.00 0.00 70 1019.9
20210518133606 54 21 0.0 0.0 0.00 0.00 0.00 71 1020.0
20210518133106 54 21 0.0 0.9 0.00 0.00 0.00 72 1020.1
20210518132606 53 21 0.0 0.0 0.00 0.00 0.00 72 1019.8
20210518132107 53 21 0.0 0.0 0.00 0.00 0.00 72 1019.9
20210518131606 53 21 0.0 0.9 0.00 0.00 0.00 72 1019.9
20210518131106 52 21 0.9 1.7 0.00 0.00 0.00 72 1019.9
20210518130606 52 23 0.0 1.7 0.00 0.00 0.00 72 1019.9
20210518130106 52 22 0.0 0.9 0.00 0.00 0.00 71 1019.7
20210518125606 52 22 0.0 0.0 0.00 0.00 0.00 71 1019.8
20210518125106 52 22 0.0 1.7 0.00 0.00 0.00 71 1019.6
20210518124606 52 22 0.9 1.7 0.00 0.00 0.00 70 1019.7
20210518124106 52 22 0.9 1.7 0.00 0.00 0.00 70 1019.7
20210518123606 52 21 0.0 0.9 0.00 0.00 0.00 70 1019.6
20210518123106 52 21 0.9 1.7 0.00 0.00 0.00 70 1019.6
20210518122606 52 21 0.0 1.7 0.00 0.00 0.00 70 1019.5
20210518122106 52 21 0.9 2.6 0.00 0.00 0.00 70 1019.4
20210518121605 52 18 0.9 1.7 0.00 0.00 0.00 70 1019.3
20210518121106 53 11 0.9 1.7 0.00 0.00 0.00 69 1019.4
20210518120606 53 11 0.0 0.9 0.00 0.00 0.00 69 1019.3
20210518120106 53 11 0.9 1.7 0.00 0.00 0.00 69 1019.3
20210518115606 53 11 0.0 0.9 0.00 0.00 0.00 69 1019.3
20210518115106 53 11 0.9 1.7 0.00 0.00 0.00 69 1019.3
20210518114606 53 11 0.9 1.7 0.00 0.00 0.00 69 1019.3
20210518114106 53 10 0.0 0.0 0.00 0.00 0.00 69 1019.2
20210518113605 53 10 0.9 1.7 0.00 0.00 0.00 69 1019.3
20210518113106 53 11 0.9 1.7 0.00 0.00 0.00 69 1019.1
20210518112605 53 11 0.0 0.0 0.00 0.00 0.00 68 1019.1
20210518112106 53 11 0.0 0.0 0.00 0.00 0.00 68 1019.0
20210518111605 53 11 0.0 0.0 0.00 0.00 0.00 67 1019.1
20210518111105 53 11 0.0 0.0 0.00 0.00 0.00 67 1019.1
20210518110606 53 11 0.0 0.0 0.00 0.00 0.00 67 1019.1
20210518110106 53 11 0.0 0.0 0.00 0.00 0.00 67 1019.2
20210518105606 53 11 0.0 0.0 0.00 0.00 0.00 66 1019.1
20210518105105 54 11 0.0 0.0 0.00 0.00 0.00 66 1019.0
20210518104605 54 11 0.0 0.0 0.00 0.00 0.00 66 1019.1
20210518104106 54 11 0.0 0.0 0.00 0.00 0.00 66 1019.1
20210518103606 54 11 0.0 0.0 0.00 0.00 0.00 65 1019.1
20210518103105 54 11 0.0 0.0 0.00 0.00 0.00 66 1019.1
20210518102605 54 11 0.0 0.9 0.00 0.00 0.00 65 1019.0
20210518102106 54 11 0.0 0.9 0.00 0.00 0.00 65 1019.0
20210518101605 54 11 0.0 1.7 0.00 0.00 0.00 65 1019.1
20210518101105 54 10 0.9 1.7 0.00 0.00 0.00 65 1019.1
20210518100605 54 5 0.0 1.7 0.00 0.00 0.00 65 1019.1
20210518100105 54 5 0.9 1.7 0.00 0.00 0.00 64 1019.1
20210518095606 54 0 0.0 1.7 0.00 0.00 0.00 64 1019.0
20210518095106 54 355 0.9 0.9 0.00 0.00 0.00 63 1018.8
20210518094605 55 355 0.0 0.9 0.00 0.00 0.00 63 1018.7
20210518094106 55 355 0.9 0.9 0.00 0.00 0.00 63 1018.7
20210518093605 55 355 0.9 0.9 0.00 0.00 0.00 63 1018.9
20210518093106 55 355 0.0 0.0 0.00 0.00 0.00 62 1018.7
20210518092606 55 355 0.0 0.0 0.00 0.00 0.00 62 1018.5
20210518092106 55 355 0.0 0.0 0.00 0.00 0.00 62 1018.5
20210518091605 55 355 0.0 0.0 0.00 0.00 0.00 62 1018.5
20210518091106 55 355 0.0 0.0 0.00 0.00 0.00 62 1018.5
20210518090606 55 355 0.0 1.7 0.00 0.00 0.00 62 1018.5
20210518090105 55 355 0.0 1.7 0.00 0.00 0.00 62 1018.4
20210518085605 55 355 0.0 0.9 0.00 0.00 0.00 62 1018.4
20210518085106 55 355 1.7 1.7 0.00 0.00 0.00 62 1018.5
20210518084605 55 306 0.9 1.7 0.00 0.00 0.00 62 1018.5
20210518084106 56 284 0.0 0.9 0.00 0.00 0.00 61 1018.6
20210518083605 56 284 0.0 0.0 0.00 0.00 0.00 61 1018.5
20210518083105 56 284 0.0 0.0 0.00 0.00 0.00 61 1018.6
20210518082605 56 284 0.0 0.0 0.00 0.00 0.00 60 1018.6
20210518082106 56 284 0.0 1.7 0.00 0.00 0.00 60 1018.7
20210518081606 56 285 0.0 1.7 0.00 0.00 0.00 59 1018.6
20210518081105 56 285 1.7 2.6 0.00 0.00 0.00 59 1018.7
20210518080605 57 170 1.7 2.6 0.00 0.00 0.00 58 1018.5
20210518080105 57 119 0.9 1.7 0.00 0.00 0.00 58 1018.5
20210518075605 57 119 0.9 2.6 0.00 0.00 0.00 58 1018.5
20210518075105 57 116 0.9 2.6 0.00 0.00 0.00 58 1018.6
20210518074605 57 132 0.9 1.7 0.00 0.00 0.00 59 1018.6
20210518074105 57 138 0.9 1.7 0.00 0.00 0.00 59 1018.8
20210518073605 57 158 0.9 1.7 0.00 0.00 0.00 58 1018.7
20210518073105 57 209 0.9 1.7 0.00 0.00 0.00 58 1018.8
20210518072605 57 211 0.9 2.6 0.00 0.00 0.00 57 1018.7
20210518072106 58 204 0.9 2.6 0.00 0.00 0.00 56 1018.7
20210518071605 58 182 0.9 1.7 0.00 0.00 0.00 56 1018.7
20210518071105 58 155 0.9 1.7 0.00 0.00 0.00 55 1018.6
20210518070604 58 142 0.9 2.6 0.00 0.00 0.00 55 1018.5
20210518070106 58 135 1.7 2.6 0.00 0.00 0.00 54 1018.3
20210518065605 59 44 0.9 1.7 0.00 0.00 0.00 54 1018.3
20210518065104 59 44 0.9 1.7 0.00 0.00 0.00 53 1018.5
20210518064605 59 43 0.9 2.6 0.00 0.00 0.00 53 1018.4
20210518064104 59 43 1.7 2.6 0.00 0.00 0.00 53 1018.6
20210518063605 59 44 0.9 2.6 0.00 0.00 0.00 53 1018.4
20210518063105 59 47 2.6 2.6 0.00 0.00 0.00 53 1018.4
20210518062605 59 59 1.7 2.6 0.00 0.00 0.00 53 1018.4
20210518062105 59 59 1.7 2.6 0.00 0.00 0.00 53 1018.5
20210518061605 59 57 1.7 2.6 0.00 0.00 0.00 53 1018.6
20210518061105 59 46 0.9 2.6 0.00 0.00 0.00 53 1018.6
20210518060605 59 38 1.7 2.6 0.00 0.00 0.00 53 1018.7
20210518060105 59 40 2.6 2.6 0.00 0.00 0.00 53 1018.9
20210518055604 59 51 0.9 2.6 0.00 0.00 0.00 52 1018.7
20210518055105 59 52 1.7 2.6 0.00 0.00 0.00 52 1018.6
20210518054605 59 55 2.6 2.6 0.00 0.00 0.00 52 1018.7
20210518054104 60 36 1.7 2.6 0.00 0.00 0.00 51 1018.8
20210518053605 60 36 0.9 1.7 0.00 0.00 0.00 50 1018.8
20210518053105 60 36 0.0 0.9 0.00 0.00 0.00 49 1018.7
20210518052605 61 36 0.0 1.7 0.00 0.00 0.00 49 1018.9
20210518052105 61 36 0.9 2.6 0.00 0.00 0.00 48 1018.9
20210518051605 61 41 0.9 1.7 0.00 0.00 0.00 48 1019.1
20210518051105 61 40 0.9 1.7 0.00 0.00 0.00 48 1019.0
20210518050605 62 39 0.9 1.7 0.00 0.00 0.00 47 1019.0
20210518050105 62 27 0.9 1.7 0.00 0.00 0.00 46 1018.9
20210518045604 62 17 0.0 1.7 0.00 0.00 0.00 45 1018.7
20210518045104 63 17 0.9 1.7 0.00 0.00 0.00 44 1018.8
20210518044605 63 18 0.9 1.7 0.00 0.00 0.00 44 1018.9
20210518044105 63 24 0.9 1.7 0.00 0.00 0.00 44 1018.9
20210518043605 63 39 0.0 0.9 0.00 0.00 0.00 44 1018.8
20210518043104 64 39 0.0 1.7 0.00 0.00 0.00 44 1019.0
20210518042605 64 39 0.0 1.7 0.00 0.00 0.00 44 1018.8
20210518042105 64 39 1.7 2.6 0.00 0.00 0.00 44 1018.8
20210518041605 64 34 1.7 4.3 0.00 0.00 0.00 44 1018.8
20210518041104 64 33 2.6 5.2 0.00 0.00 0.00 44 1018.9
20210518040604 63 16 1.7 2.6 0.00 0.00 0.00 44 1018.7
20210518040104 64 338 2.6 4.3 0.00 0.00 0.00 43 1018.7
20210518035604 64 336 2.6 2.6 0.00 0.00 0.00 43 1018.5
20210518035105 64 340 1.7 2.6 0.00 0.00 0.00 42 1018.5
20210518034604 65 330 1.7 2.6 0.00 0.00 0.00 42 1018.4
20210518034105 65 273 0.9 2.6 0.00 0.00 0.00 41 1018.3
20210518033604 65 272 1.7 2.6 0.00 0.00 0.00 41 1018.1
20210518033104 65 271 0.9 1.7 0.00 0.00 0.00 41 1018.2
20210518032605 65 269 0.0 0.9 0.00 0.00 0.00 40 1018.0
20210518032105 66 269 0.0 1.7 0.00 0.00 0.00 40 1017.9
20210518031604 66 273 0.9 2.6 0.00 0.00 0.00 40 1017.9
20210518031104 66 262 0.9 2.6 0.00 0.00 0.00 39 1018.0
20210518030604 66 239 0.9 1.7 0.00 0.00 0.00 39 1017.9
20210518030104 66 239 0.9 1.7 0.00 0.00 0.00 39 1017.9
20210518025604 67 234 0.0 1.7 0.00 0.00 0.00 39 1017.9
20210518025105 67 235 0.9 1.7 0.00 0.00 0.00 39 1017.9
20210518024605 67 240 0.9 1.7 0.00 0.00 0.00 38 1017.7
20210518024104 67 241 0.0 2.6 0.00 0.00 0.00 38 1017.7
20210518023604 68 257 0.0 1.7 0.00 0.00 0.00 38 1017.5
20210518023104 68 257 0.9 2.6 0.00 0.00 0.00 38 1017.5
20210518022604 68 260 1.7 2.6 0.00 0.00 0.00 37 1017.3
20210518022105 68 259 1.7 4.3 0.00 0.00 0.00 37 1017.4
20210518021604 68 233 1.7 5.2 0.00 0.00 0.00 37 1017.3
20210518021104 69 207 1.7 7.0 0.00 0.00 0.00 37 1017.3
20210518020605 69 190 5.2 13.0 0.00 0.00 0.00 37 1017.4
20210518020105 69 190 4.3 10.4 0.00 0.00 0.00 37 1017.1
20210518015604 69 197 6.1 10.4 0.00 0.00 0.00 37 1017.1
20210518015104 70 187 5.2 12.2 0.00 0.00 0.00 36 1017.1
20210518014604 70 183 6.1 10.4 0.00 0.00 0.00 35 1017.0
20210518014104 71 280 2.6 6.1 0.00 0.00 0.00 36 1017.0
20210518013605 71 203 6.1 12.2 0.00 0.00 0.00 35 1017.1
20210518013104 71 257 2.6 5.2 0.00 0.00 0.00 31 1017.0
20210518012605 71 277 2.6 6.1 0.00 0.00 0.00 31 1016.8
20210518012104 71 289 6.1 7.8 0.00 0.00 0.00 31 1016.9
20210518011604 71 282 6.1 10.4 0.00 0.00 0.00 32 1017.0
20210518011104 71 288 6.1 8.7 0.00 0.00 0.00 32 1017.0
20210518010604 71 293 5.2 7.8 0.00 0.00 0.00 32 1016.9
20210518010104 71 304 5.2 8.7 0.00 0.00 0.00 32 1016.8
20210518005604 71 286 6.1 10.4 0.00 0.00 0.00 33 1016.9
20210518005104 71 291 8.7 10.4 0.00 0.00 0.00 32 1016.9
20210518004604 71 284 5.2 10.4 0.00 0.00 0.00 33 1016.8
20210518004104 71 315 4.3 11.3 0.00 0.00 0.00 32 1016.8
20210518003604 71 304 7.8 13.0 0.00 0.00 0.00 33 1016.8
20210518003104 72 294 7.8 13.0 0.00 0.00 0.00 32 1016.8
20210518002604 72 299 7.8 11.3 0.00 0.00 0.00 32 1016.6
20210518002106 72 327 5.2 11.3 0.00 0.00 0.00 33 1016.6
20210518001606 71 308 7.0 13.0 0.00 0.00 0.00 33 1016.7
20210518001104 71 294 10.4 14.8 0.00 0.00 0.00 31 1016.7
20210518000604 71 291 7.8 12.2 0.00 0.00 0.00 33 1016.8
20210518000105 71 298 7.8 13.0 0.00 0.00 0.00 33 1016.7
20210517235608 71 283 8.7 13.9 0.00 0.00 0.00 33 1016.7
20210517235108 72 285 10.4 13.9 0.00 0.00 0.00 33 1016.7
20210517234607 72 314 7.0 13.0 0.00 0.00 0.00 33 1016.6
20210517234107 72 305 8.7 13.9 0.00 0.00 0.00 32 1016.7
20210517233608 72 285 10.4 13.9 0.00 0.00 0.00 31 1016.6
20210517233108 72 290 7.8 13.0 0.00 0.00 0.00 32 1016.6
20210517232608 72 292 9.6 17.4 0.00 0.00 0.00 32 1016.5
20210517232107 72 291 6.1 13.0 0.00 0.00 0.00 32 1016.7
20210517231607 72 321 5.2 7.0 0.00 0.00 0.00 33 1016.8
20210517231107 72 300 7.0 11.3 0.00 0.00 0.00 33 1016.8
20210517230607 72 277 8.7 13.0 0.00 0.00 0.00 32 1016.9
20210517230108 72 318 6.1 8.7 0.00 0.00 0.00 31 1017.0
20210517225608 72 336 5.2 10.4 0.00 0.00 0.00 30 1017.0
20210517225107 72 335 6.1 14.8 0.00 0.00 0.00 31 1017.2
20210517224607 72 354 8.7 11.3 0.00 0.00 0.00 32 1017.2
20210517224107 72 7 5.2 10.4 0.00 0.00 0.00 33 1017.2
20210517223607 71 354 6.1 11.3 0.00 0.00 0.00 33 1017.1
20210517223107 71 338 8.7 15.6 0.00 0.00 0.00 33 1017.3
20210517222607 70 335 8.7 13.9 0.00 0.00 0.00 34 1017.3
20210517222108 70 342 11.3 17.4 0.00 0.00 0.00 34 1017.4
20210517221608 70 333 11.3 20.0 0.00 0.00 0.00 34 1017.4
20210517221107 71 333 11.3 20.0 0.00 0.00 0.00 34 1017.5
20210517220607 71 352 7.8 15.6 0.00 0.00 0.00 36 1017.5
20210517220108 70 6 8.7 17.4 0.00 0.00 0.00 37 1017.6
20210517215607 70 2 9.6 13.9 0.00 0.00 0.00 36 1017.6
20210517215107 70 359 8.7 13.9 0.00 0.00 0.00 36 1017.6
20210517214607 70 349 12.2 19.1 0.00 0.00 0.00 38 1017.6
20210517214108 70 341 7.8 14.8 0.00 0.00 0.00 34 1017.7
20210517213607 70 328 8.7 14.8 0.00 0.00 0.00 37 1017.9